Regional Weather Roundup
Issued by NWS Little Rock, AR

Home | Current Version | Previous Version | Text Only | Print | Product List | Glossary On
Versions: 1 2 3 4 5 6 7 8 9 10 11 12 13 14 15 16 17 18 19 20 21 22 23 24 25 26 27 28 29 30 31 32
000
ASUS44 KLZK 171812
RWRLZK

WEATHER ROUNDUP FOR ARKANSAS
NATIONAL WEATHER SERVICE LITTLE ROCK AR
100 PM CDT THU AUG 17 2017

NOTE: "FAIR" INDICATES FEW OR NO CLOUDS BELOW 12,000 FEET WITH NO
SIGNIFICANT WEATHER AND/OR OBSTRUCTIONS TO VISIBILITY.

ARZ001-003-010-029-171900-
NORTHWEST ARKANSAS

CITY           SKY/WX    TMP DP  RH WIND       PRES   REMARKS
FAYETTEVILLE   CLOUDY    77  71  82 W6        30.05S
6HR MIN TEMP:  68; 6HR MAX TEMP:  78;

FORT SMITH     PTSUNNY   82  71  69 W12       30.02S HX  86
6HR MIN TEMP:  73; 6HR MAX TEMP:  82;

HARRISON       CLOUDY    79  70  74 W7        30.03S
6HR MIN TEMP:  68; 6HR MAX TEMP:  79;

BENTONVILLE    CLOUDY    79  68  69 W6        30.05S
6HR MIN TEMP:  70; 6HR MAX TEMP:  79;

ROGERS         PTSUNNY   78  69  73 W7        30.05S
6HR MIN TEMP:  69; 6HR MAX TEMP:  78;

SILOAM SPGS    CLOUDY    79  70  73 SW7       30.04S
6HR MIN TEMP:  70; 6HR MAX TEMP:  79;

HIGHFILL       CLOUDY    78  70  76 W5        30.05S
6HR MIN TEMP:  69; 6HR MAX TEMP:  79;

SPRINGDALE     PTSUNNY   77  70  78 W5        30.06S
$$

ARZ004-005-016-171900-
NORTH CENTRAL ARKANSAS

CITY           SKY/WX    TMP DP  RH WIND       PRES   REMARKS
BATESVILLE     CLOUDY    81  72  74 SW10      29.97F
6HR MIN TEMP:  70; 6HR MAX TEMP:  81; 6HR PCP:  1.10;

FLIPPIN        CLOUDY    79  66  65 W12       29.97S
6HR MIN TEMP:  70; 6HR MAX TEMP:  82; 6HR PCP:  0.01;

MTN HOME       CLOUDY    77  72  84 VRB6      29.99S
6HR MIN TEMP:  68; 6HR MAX TEMP:  79; 6HR PCP:  0.01;

$$

ARZ040-041-171900-
WEST CENTRAL ARKANSAS

CITY           SKY/WX    TMP DP  RH WIND       PRES   REMARKS
MENA           CLOUDY    81  75  83 SW8       30.06S HX  86
MOUNT IDA      PTSUNNY   82  69  64 SW8       30.01F HX  85
6HR MIN TEMP:  73; 6HR MAX TEMP:  82; 6HR PCP:  0.08;

$$

ARZ009-017-025-026-028-171900-
NORTHEAST ARKANSAS

CITY           SKY/WX    TMP DP  RH WIND       PRES   REMARKS
CORNING        CLOUDY    77  77 100 SW8       29.95F
JONESBORO      CLOUDY    80  74  81 SW10      29.95F HX  85
6HR MIN TEMP:  76; 6HR MAX TEMP:  81; 6HR PCP:  0.01;

NEWPORT        CLOUDY    81  73  78 SW7       29.96F HX  85
6HR MIN TEMP:  71; 6HR MAX TEMP:  81; 6HR PCP:  0.08;

WALNUT RIDGE   CLOUDY    79  72  78 W6        29.96F
6HR MIN TEMP:  70; 6HR MAX TEMP:  79; 6HR PCP:  0.34;

NW BLYTHEVILLE PTSUNNY   88  73  62 MISG      29.95F HX  96
$$

ARZ022-023-033-042-044-171900-
CENTRAL ARKANSAS

CITY           SKY/WX    TMP DP  RH WIND       PRES   REMARKS
LITTLE ROCK    PTSUNNY   81  74  79 W9        29.99F HX  86
6HR MIN TEMP:  74; 6HR MAX TEMP:  81; 6HR PCP: TRACE;

N LITTLE ROCK    N/A     79  75  87 W6        29.99S
6HR MIN TEMP:  72; 6HR MAX TEMP:  79;

JACKSONVILLE   CLOUDY    81  75  83 SW8       29.98F HX  86
6HR MIN TEMP:  73; 6HR MAX TEMP:  81;

CONWAY           N/A     84  73  70 W8        29.97S HX  91
SEARCY           N/A    N/A N/A N/A MISG        N/A
HOT SPRINGS    CLOUDY    82  71  69 W12       30.02S HX  86
6HR MIN TEMP:  73; 6HR MAX TEMP:  82; 6HR PCP:  0.24;

RUSSELLVILLE   CLOUDY    84  72  67 NW13      29.98F HX  89
6HR MIN TEMP:  71; 6HR MAX TEMP:  85; 6HR PCP: TRACE;

CLINTON        PTSUNNY   82  73  74 W6G12     29.97F HX  88
$$

ARZ036-171900-
EAST ARKANSAS

CITY           SKY/WX    TMP DP  RH WIND       PRES   REMARKS
WEST MEMPHIS   CLOUDY    85  78  80 SW8       29.95F HX  96
6HR MIN TEMP:  78; 6HR MAX TEMP:  86; 6HR PCP: TRACE;

$$

ARZ050-053-066-070-073-171900-
SOUTHWEST ARKANSAS

CITY           SKY/WX    TMP DP  RH WIND       PRES   REMARKS
ARKADELPHIA    FAIR      79  73  82 W8        30.02F
6HR MIN TEMP:  71; 6HR MAX TEMP:  80; 6HR PCP:  0.23;

CAMDEN         CLOUDY    84  72  65 CALM      30.01F HX  89
TEXARKANA      PTSUNNY   75  72  90 SW8       30.05F
6HR MIN TEMP:  69; 6HR MAX TEMP:  75; 6HR PCP:  0.60;

EL DORADO      CLOUDY    83  71  67 SW9       30.03R HX  87
6HR MIN TEMP:  74; 6HR MAX TEMP:  84; 6HR PCP:  0.04;

DE QUEEN       CLOUDY    77  73  87 SW8       30.03F
6HR MIN TEMP:  70; 6HR MAX TEMP:  77;

$$

ARZ056-057-069-171900-
SOUTHEAST ARKANSAS

CITY           SKY/WX    TMP DP  RH WIND       PRES   REMARKS
PINE BLUFF     PTSUNNY   84  71  65 W9        30.00R HX  89
6HR MIN TEMP:  78; 6HR MAX TEMP:  84; 6HR PCP: TRACE;

MONTICELLO     CLOUDY    83  75  77 SW8       29.99F HX  90
6HR MIN TEMP:  79; 6HR MAX TEMP:  85; 6HR PCP:  0.10;


$$






USA.gov is the U.S. government's official web portal to all federal, state and local government web resources and services.